Big Sky, USA 16 day weather forecast

Slopes altitude range 2070 m - 3400m

Number of lifts: 17 Pistes: 150km

In some cases the lift and piste totals shown are for the ski domain (e.g. Three Valleys) rather than individual resort (e.g. Courchevel)

Overview

The 16 day weather forecast is fully updated 4 times every day.

    • Sat 20 APR 2019
    • Sat 20
    • 1C 3C
    • Sun 21 APR 2019
    • Sun 21
    • 1C 2C
    • Mon 22 APR 2019
    • Mon 22
    • -2C -1C
    • Tue 23 APR 2019
    • Tue 23
    • -1C 0C
    • Wed 24 APR 2019
    • Wed 24
    • 2C 5C
    • Thu 25 APR 2019
    • Thu 25
    • 1C 3C
    • Fri 26 APR 2019
    • Fri 26
    • 3C 5C
    • Sat 27 APR 2019
    • Sat 27
    • 3C 6C
    • Sun 28 APR 2019
    • Sun 28
    • 1C 3C
    • Mon 29 APR 2019
    • Mon 29
    • -3C 1C
    • Tue 30 APR 2019
    • Tue 30
    • 2C 11C
    • Wed 01 MAY 2019
    • Wed 01
    • 4C 14C
    • Thu 02 MAY 2019
    • Thu 02
    • 4C 15C
    • Fri 03 MAY 2019
    • Fri 03
    • 2C 12C
    • Sat 04 MAY 2019
    • Sat 04
    • 5C 16C
    • Sun 05 MAY 2019
    • Sun 05
    • 5C 12C

Date:

Time Type 0°C level Temp Chill Snow Cloud Speed Gust Dir Press
3:00 3609m 5°C 5_8 0cm 93% 8mph 19mph 1010mB
6:00 3613m 3°C 3_8 0cm 95% 8mph 18mph 1011mB
9:00 3638m 2°C 2_8 0cm 63% 8mph 15mph 1009mB
12:00 3693m 3°C 3_8 0cm 80% 8mph 13mph 1008mB
15:00 3505m 6°C 6_9 0cm 98% 9mph 15mph 1007mB
18:00 3463m 9°C 9_9 0cm 99% 9mph 14mph 1005mB
21:00 3445m 9°C 9_13 0cm 92% 13mph 18mph 1004mB
0:00 3444m 9°C 9_13 0cm 92% 13mph 21mph 1004mB
3:00 3264m 4°C 4_7 0cm 99% 7mph 10mph 1007mB
6:00 2892m 2°C 2_6 8cm 99% 6mph 9mph 1009mB
9:00 2686m 1°C 1_6 1cm 99% 6mph 9mph 1010mB
12:00 2531m 2°C 2_6 1cm 99% 6mph 9mph 1011mB
15:00 2488m 2°C 2_8 1cm 100% 8mph 11mph 1013mB
18:00 2590m 3°C 3_9 1cm 100% 9mph 11mph 1014mB
21:00 2644m 3°C 3_9 1cm 100% 9mph 10mph 1015mB
0:00 2627m 3°C 3_9 1cm 100% 9mph 11mph 1016mB
3:00 2410m 0°C 0_7 1cm 100% 7mph 10mph 1018mB
6:00 2199m -1°C -1_5 1cm 100% 5mph 8mph 1021mB
9:00 2102m -2°C -2_5 1cm 99% 5mph 7mph 1021mB
12:00 2086m -1°C -1_4 1cm 99% 4mph 7mph 1022mB
15:00 2399m 0°C 0_6 1cm 99% 6mph 8mph 1022mB
18:00 2726m 5°C 5_8 1cm 98% 8mph 9mph 1020mB
21:00 2972m 5°C 5_8 0cm 79% 8mph 9mph 1018mB
0:00 3066m 5°C 5_8 0cm 51% 8mph 9mph 1017mB
3:00 3018m 2°C 2_3 0cm 0% 3mph 3mph 1019mB
6:00 2666m 0°C 0_1 0cm 6% 1mph 2mph 1020mB
9:00 2628m 0°C 0_1 0cm 12% 1mph 2mph 1021mB
12:00 2621m 0°C 0_2 0cm 21% 2mph 3mph 1022mB
15:00 2985m 5°C 5_5 0cm 60% 5mph 6mph 1021mB
18:00 3188m 9°C 9_6 0cm 57% 6mph 6mph 1019mB
21:00 3380m 9°C 9_6 0cm 76% 6mph 7mph 1017mB
0:00 3442m 9°C 9_7 0cm 78% 7mph 9mph 1016mB
3:00 3427m 5°C 5_2 0cm 86% 2mph 3mph 1017mB
6:00 3350m 5°C 5_4 0cm 92% 4mph 5mph 1019mB
9:00 3330m 4°C 4_4 0cm 97% 4mph 5mph 1019mB
12:00 3248m 5°C 5_3 0cm 91% 3mph 4mph 1019mB
15:00 3227m 7°C 7_5 0cm 59% 5mph 6mph 1018mB
18:00 3308m 10°C 10_9 0cm 56% 9mph 14mph 1017mB
21:00 3451m 10°C 10_13 0cm 96% 13mph 20mph 1015mB
0:00 3442m 10°C 10_12 0cm 96% 12mph 19mph 1014mB
3:00 3422m 6°C 6_4 0cm 72% 4mph 5mph 1017mB
6:00 3304m 3°C 3_4 0cm 58% 4mph 5mph 1019mB
9:00 3249m 1°C 1_2 0cm 47% 2mph 2mph 1019mB
12:00 3216m 3°C 3_1 0cm 45% 1mph 1mph 1020mB
15:00 3184m 7°C 7_4 0cm 2% 4mph 4mph 1019mB
18:00 3363m 11°C 11_7 0cm 11% 7mph 10mph 1017mB
21:00 3564m 11°C 11_12 0cm 45% 12mph 16mph 1014mB
0:00 3620m 11°C 11_12 0cm 69% 12mph 18mph 1013mB
3:00 3664m 7°C 7_6 0cm 58% 6mph 7mph 1015mB
6:00 3684m 5°C 5_6 0cm 30% 6mph 8mph 1015mB
9:00 3627m 4°C 4_7 0cm 0% 7mph 10mph 1015mB
12:00 3649m 5°C 5_7 0cm 31% 7mph 10mph 1015mB
15:00 3675m 7°C 7_10 0cm 99% 10mph 17mph 1014mB
18:00 3629m 12°C 12_14 0cm 99% 14mph 21mph 1011mB
21:00 3671m 12°C 12_13 0cm 100% 13mph 21mph 1010mB
0:00 3688m 11°C 11_12 0cm 100% 12mph 22mph 1008mB
3:00 3711m 6°C 6_6 0cm 100% 6mph 9mph 1009mB
6:00 3570m 5°C 5_6 0cm 100% 6mph 11mph 1010mB
9:00 3375m 5°C 5_5 0cm 100% 5mph 11mph 1009mB
12:00 3007m 6°C 6_6 0cm 100% 6mph 12mph 1011mB
15:00 3065m 5°C 5_5 0cm 100% 5mph 8mph 1011mB
18:00 3317m 10°C 10_10 0cm 69% 10mph 16mph 1011mB
21:00 3466m 10°C 10_14 0cm 64% 14mph 19mph 1010mB
0:00 3584m 10°C 10_13 0cm 80% 13mph 21mph 1010mB
3:00 3542m 7°C 7_8 0cm 100% 8mph 25mph 1012mB
6:00 3481m 3°C 3_5 0cm 91% 5mph 8mph 1014mB
9:00 3458m 2°C 2_6 0cm 28% 6mph 11mph 1014mB
12:00 3438m 3°C 3_6 0cm 38% 6mph 9mph 1014mB
15:00 3444m 7°C 7_11 0cm 82% 11mph 26mph 1010mB
18:00 3541m 13°C 13_22 0cm 74% 22mph 37mph 1007mB
21:00 3613m 12°C 12_22 0cm 67% 22mph 36mph 1006mB
0:00 3424m 8°C 8_13 0cm 84% 13mph 31mph 1006mB
3:00 3302m 5°C 5_13 0cm 48% 13mph 33mph 1010mB
6:00 2936m 1°C 1_7 0cm 24% 7mph 23mph 1015mB
9:00 2159m -2°C -2_4 0cm 0% 4mph 5mph 1019mB
12:00 2016m 1°C 1_3 0cm 0% 3mph 4mph 1022mB
15:00 2560m 4°C 4_1 0cm 25% 1mph 3mph 1021mB
18:00 3067m 9°C 9_6 0cm 17% 6mph 9mph 1019mB
21:00 3415m 9°C 9_9 0cm 37% 9mph 14mph 1016mB
0:00 3493m 9°C 9_7 0cm 64% 7mph 10mph 1015mB
Afternoon 0mm 0 3576m 11°C 11_6 0cm 99% 6mph 7mph 1019mB
Morning 0.0885417mm 0 3803m 2°C 2_5 0cm 96% 5mph 14mph 1012mB
Afternoon 0.0416667mm 0.375 3912m 14°C 14_6 0cm 83% 6mph 7mph 1012mB
Morning 0mm 0 3855m 4°C 4_18 0cm 54% 18mph 30mph 1004mB
Afternoon 0.145833mm 1.5 3269m 15°C 15_7 0cm 30% 7mph 16mph 1012mB
Morning 0.0677083mm 0.5 3552m 4°C 4_6 0cm 41% 6mph 6mph 1012mB
Afternoon 0mm 0 3458m 12°C 12_3 0cm 37% 3mph 4mph 1016mB
Morning 0mm 0 3915m 2°C 2_5 0cm 41% 5mph 4mph 1009mB
Afternoon 0mm 0 3711m 16°C 16_4 0cm 94% 4mph 5mph 1012mB
Morning 0.427083mm 4.4375 3730m 5°C 5_3 0cm 98% 3mph 6mph 1006mB
Afternoon 0.515625mm 2.4375 3571m 12°C 12_4 0cm 94% 4mph 5mph 1009mB
Morning 0.489583mm 3.25 3561m 5°C 5_8 0cm 92% 8mph 13mph 1006mB

16 day outlook at a glance

Forecast issued: 20/04/2019 06:53:55

Chat

Your comments and questions. In a resort? Let us know what it's like!


Characters left 250

For terms and conditions see Readers Comments on the Cookie and privacy policy page.